Regional Weather Roundup
Issued by NWS

Home | Current Version | Previous Version | Graphics & Text | Print | Product List | Glossary On
Versions: 1 2 3 4 5 6 7 8 9 10 11 12 13 14 15 16 17 18 19 20 21 22 23 24 25 26 27 28 29 30 31 32 33 34 35 36 37 38 39 40 41 42 43 44 45 46 47 48 49 50
000
ASUS43 KLMK 171302
RWRKY
KENTUCKY REGIONAL WEATHER ROUNDUP
NATIONAL WEATHER SERVICE LOUISVILLE KY
800 AM EST WED DEC 17 2014

NOTE "FAIR" INDICATES FEW OR NO CLOUDS BELOW 12,000 FEET
WITH NO SIGNIFICANT WEATHER AND/OR OBSTRUCTIONS TO VISIBILITY.

KYZ001>023-026-027-061>063-070>075-171400-
WESTERN AND SOUTH CENTRAL KENTUCKY

CITY           SKY/WX    TMP DP  RH WIND       PRES   REMARKS
PADUCAH        CLOUDY    32  25  75 N7        30.32R WCI  26
HENDERSON      CLOUDY    32  23  69 NW6       30.32S WCI  26
OWENSBORO      CLOUDY    33  26  76 N12       30.31R WCI  24
HOPKINSVILLE   CLOUDY    33  28  81 NW7       30.31R WCI  27
BOWLING GREEN  CLOUDY    35  27  72 NW6       30.29R WCI  30
GLASGOW        NOT AVBL
$$

KYZ024-025-028>034-038-045-046-053-171400-
NORTH CENTRAL KENTUCKY

CITY           SKY/WX    TMP DP  RH WIND       PRES   REMARKS
LOUISVILLE/SDF CLOUDY    33  25  72 NW12      30.27R WCI  24
LOUISVILLE/LOU CLOUDY    33  26  75 W8        30.28R WCI  26
FORT KNOX      CLOUDY    32  27  81 NW7       30.25R WCI  26
$$

KYZ035>037-039>044-047>052-055>060-089>105-171400-
NORTHEAST KENTUCKY

CITY           SKY/WX    TMP DP  RH WIND       PRES   REMARKS
LEXINGTON      CLOUDY    31  27  85 NW12G20   30.24R WCI  22
COVINGTON      CLOUDY    31  24  75 W12       30.22R WCI  22
FRANKFORT      CLOUDY    31  27  85 W5        30.24R WCI  26
$$

KYZ054-064>069-076>088-106>120-171400-
SOUTHEAST KENTUCKY

CITY           SKY/WX    TMP DP  RH WIND       PRES   REMARKS
JACKSON        CLOUDY    34  32  92 VRB5      30.20R FOG     WCI  30
LONDON         CLOUDY    37  33  85 NW7       30.22R WCI  32
SOMERSET       NOT AVBL
MIDDLESBORO    CLOUDY    40  36  87 NW8       30.22R WCI  34
MONTICELLO     CLOUDY    36  34  92 NW6       30.27S FOG     WCI  31
$$



USA.gov is the U.S. government's official web portal to all federal, state and local government web resources and services.